Regional Weather Roundup
Issued by NWS

Home | Current Version | Previous Version | Graphics & Text | Print | Product List | Glossary On
Versions: 1 2 3 4 5 6 7 8 9 10 11 12 13 14 15 16 17 18 19 20 21 22 23 24 25 26 27 28 29 30 31 32 33 34 35 36 37 38 39 40 41 42 43 44 45 46 47 48 49 50
000
ASUS43 KLOT 301700
RWRIL

ILLINOIS REGIONAL WEATHER ROUNDUP
NATIONAL WEATHER SERVICE CHICAGO/ROMEOVILLE IL
1200 PM CDT TUE SEP 30 2014

NOTE: "FAIR" INDICATES FEW OR NO CLOUDS BELOW 12,000 FEET WITH NO
SIGNIFICANT WEATHER AND/OR OBSTRUCTIONS TO VISIBILITY.

* THESE STATIONS ARE NOT UNDER NWS QUALITY CONTROL. THEY ALSO MAY NOT
  REPORT WEATHER SUCH AS PRECIPITATION OR FOG.

ILZ001-002-007-009-015-016-024-301800-
NORTHWEST ILLINOIS

CITY           SKY/WX    TMP DP  RH WIND       PRES   REMARKS
MOLINE         NOT AVBL
$$

ILZ003-004-008-010-011-017-018-301800-
NORTH CENTRAL ILLINOIS

CITY           SKY/WX    TMP DP  RH WIND       PRES   REMARKS
ROCKFORD       NOT AVBL
FREEPORT*      CLOUDY    50  43  76 E3        30.09S
ROCHELLE*      MOSUNNY   55  43  64 NE9       30.06F
$$

ILZ005-006-012>014-019>023-301800-
NORTHEAST ILLINOIS

CITY           SKY/WX    TMP DP  RH WIND       PRES   REMARKS
CHICAGO-OHARE  PTSUNNY   55  46  71 NE10      30.05S
CHICAGO-MIDWAY NOT AVBL
AURORA         CLOUDY    55  45  68 E9        30.06F
LANSING*       CLOUDY    55  49  82 N8        30.04F
WAUKEGAN       CLOUDY    52  45  77 VRB6      30.06
DUPAGE AIRPORT CLOUDY    55  45  68 NE7       30.05F
WHEELING       CLOUDY    56  47  71 VRB5      30.06F
NORTHERLY ISL    N/A     53  50  89 N8          N/A
$$

LMZ740>746-301800-
SOUTHERN LAKE MICHIGAN

STATION/POSITION SKY/WX   TEMP    WIND        PRES    VSBY  WAVE
                          AIR SEA DIR/SP/G                  HT/PER
                          (F)     (DEG/KT/KT) (MB)    (MI)  (FT/S)
SOUTHERN BUOY              52 62   10/ 16/ 19 1017.1R         5/ 7
WAUKEGAN HARBOR            51      20/ 10/ 15   N/A
HARRISON CRIB              52     350/ 16/ 18   N/A
BURNHAM HARBOR             54     330/  9/ 15   N/A
CALUMET HARBOR             53     360/  9/ 14 1016.3R
MICHIGAN CITY              54     360/ 16/ 20   N/A
MICHIGAN CITY 6N           55 64   20/ 12/ 17   N/A           6/ 2
ST. JOSEPH                 54 62   20/ 10/ 16   N/A           5/ 2
$$

ILZ025>027-034>036-040-047-049-050-058-095>099-301800-
WEST-CENTRAL ILLINOIS

CITY           SKY/WX    TMP DP  RH WIND       PRES   REMARKS
QUINCY         CLOUDY    61  58  90 E8        29.98F FOG
$$

ILZ028>032-037-038-041>044-048-051>054-059>061-301800-
CENTRAL ILLINOIS

CITY           SKY/WX    TMP DP  RH WIND       PRES   REMARKS
DECATUR        SUNNY     66  56  70 NE5       30.00F
PEORIA         CLOUDY    63  51  65 NE9       30.02S
SPRINGFIELD    CLOUDY    63  56  78 NE6       30.01S
TAYLORVILLE    NOT AVBL
$$

ILZ033-039-045-046-055>057-062-063-301800-
EAST-CENTRAL ILLINOIS

CITY           SKY/WX    TMP DP  RH WIND       PRES   REMARKS
MATTOON        SUNNY     65  56  72 VRB7      29.99S
$$

ILZ079-100>102-301800-
SOUTHWEST ILLINOIS

CITY           SKY/WX    TMP DP  RH WIND       PRES   REMARKS
CAHOKIA*       SUNNY     83  59  44 CALM      29.96S HX  83
SPARTA*        SUNNY     82  58  43 CALM      29.97S HX  82
$$

ILZ064>066-069>071-074>076-080>082-084>086-088>090-092>094-301800-
SOUTH-CENTRAL ILLINOIS

CITY           SKY/WX    TMP DP  RH WIND       PRES   REMARKS
CARBONDALE     SUNNY     81  59  47 CALM      29.96F HX  81
$$

ILZ067-068-072-073-078-083-087-091-301800-
SOUTHEAST ILLINOIS

CITY           SKY/WX    TMP DP  RH WIND       PRES   REMARKS
LAWRENCEVILLE  MOSUNNY   71  61  70 NE7       29.97F HAZE
ROBINSON*      CLOUDY    65  62  90 N7        30.00S FOG
$$

ABBREVIATIONS USED IN REMARKS
   TC - TEMPERATURE IN CELSIUS
  WCI - WIND CHILL INDEX
   HX - HEAT INDEX
  VSB - VISIBILITY
$$




USA.gov is the U.S. government's official web portal to all federal, state and local government web resources and services.